Weather in Raleigh

United States     35°51′00″N   78°40′40″W
temp.,
°C
wind,
m/s
gust,
m/s
humid.,
%
clouds,
%
prec.,
mm/h
press.,
hPa
HPBL,
m
16 may, sun
sun1623:00+16se1140100 0.0 102311
02:00+13se22495 0.0 102436
05:00+12s1157100 0.0 102411
08:00+15ssw115579 0.0 1026140
11:00+22sse1238100 0.0 1025780
14:00+21s334492 0.0 1024732
17:00+22ene224177 0.0 1023480
20:00+17nne3663100 0.0 1024212
17 may, mon
mon1723:00+16ne2566100 0.0 1024162
02:00+15ene257171 0.0 1024167
05:00+15nne2468100 0.0 1024140
08:00+16ne2367100 0.0 1025169
11:00+21e2350100 0.0 1025825
14:00+21s1152100 0.0 1025948
17:00+17n3470100 0.0 1024193
20:00+16nne3780100 0.1 1025242
18 may, tue
tue1823:00+15ne2489100 0.1 1026117
02:00+15e259091 0.1 1025177
05:00+15ese248780 0.1 1025164
08:00+16sse248291 0.1 1027225
11:00+20ese226452 0.0 1028842
14:00+22se2259100 0.2 10261032
17:00+23sse226250 0.9 1025858
20:00+19ese2279100 1.3 102541
19 may, wed
wed1923:00+18se2482100 0.1 102682
02:00+16sse2584100 0.1 1026121
05:00+15s2384100 0.0 102657
08:00+18sse1273100 0.0 1028162
11:00+24se125096 0.0 10291104
14:00+26ese334198 0.0 10272061
17:00+27se333750 0.0 10252085
20:00+22se355552 0.0 1026139
20 may, thu
thu2023:00+19sse2357100 0.0 102751
02:00+16ssw256920 0.0 1028108
05:00+15sw11755 0.0 102830
08:00+18nw006613 0.0 1030144
11:00+25e124416 0.0 1030967
14:00+28se333336 0.0 10281900
17:00+28se32338 0.0 10272036
20:00+23se245111 0.0 102793